Tracking 21992 objects as of 26-Nov-2020
HD Live streaming from Space Station
objects crossing your sky now

CZ-4C R/B

Track CZ-4C R/B now!
10-day predictions
CZ-4C R/B is classified as:


NORAD ID: 39211
Int'l Code: 2013-037D
Perigee: 470.7 km
Apogee: 642.7 km
Inclination: 98.0 °
Period: 95.6 minutes
Semi major axis: 6927 km
RCS: Unknown
Launch date: July 19, 2013
Source: People's Republic of China (PRC)
Launch site: Taiyaun Space Center, China (TSC)

Note: This is a ROCKET BODY
aabbcc
Your satellite tracking list
Your tracking list is empty




NASA's NSSDC Master Catalog

Two Line Element Set (TLE):
1 39211U 13037D   20330.89485878 +.00000323 +00000-0 +23590-4 0  9996
2 39211 097.9953 106.0638 0124154 021.4396 339.1965 15.05629892403433
Source of the keplerian elements: AFSPC